Simultaneous Nadir Overpasses (SNOs) Predictions

Prediction of SNOs between METOP-A and NOAA-19 Satellite Orbit:

Table of predicted SNOs for the next 14.0 days since TLE Epoch: 5/29/2020
Index Date (METOP-A) Time (METOP-A) Lat,Lon (METOP-A) SZA (METOP-A ) Date (NOAA-19) Time (NOAA-19) Lat,Lon (NOAA-19) SZA (NOAA-19 ) Distance(km) Time Diff (sec)
1 06/02/2020 09:57:18 -80.53,-135.55 121.48 06/02/2020 09:56:04 -80.52,-135.60 121.51 1.93 74
2 06/02/2020 10:47:59 80.52, 31.55 58.50 06/02/2020 10:47:07 80.52, 31.71 58.49 2.86 52
3 06/02/2020 11:38:40 -80.52,-161.03 121.50 06/02/2020 11:38:04 -80.51,-160.89 121.52 2.96 36
4 06/02/2020 12:29:21 80.50, 6.07 58.47 06/02/2020 12:29:08 80.52, 6.07 58.48 1.94 13
5 06/02/2020 13:20:02 -80.51, 173.49 121.53 06/02/2020 13:20:05 -80.51, 173.47 121.53 0.49 3
6 06/02/2020 14:10:42 80.52, -19.08 58.48 06/02/2020 14:11:08 80.51, -19.23 58.47 2.75 26
7 06/02/2020 15:01:24 -80.50, 148.01 121.55 06/02/2020 15:02:05 -80.51, 148.18 121.53 3.22 41
8 06/02/2020 15:52:04 80.51, -44.56 58.46 06/02/2020 15:53:08 80.50, -44.52 58.47 0.94 64




NCC Satellite Simultaneous Nadir Overpasses (SNOs) Prediction Service
